[[{"header":{"parameterUnit":"m.s-1","parameterCategory":1,"la1":30.2991,"la2":30.254,"lo1":-89.0895,"lo2":-89.0444,"dy":0.0017,"dx":0.0017,"nx":28,"ny":28,"refTime":"2025-03-31T09:00:00:Z","depth":0,"parameterNumber":2,"parameterNumberName":"U-component_of_WINDS"},"data":[0,0,0,0,0,0,0,0,0,0,0,0,0,0,0,0,0,0,0,0,0,0,0,0,0,0,0,0,0,0,0,0,0,0,0,0,0,0,0,0,0,0,0,0,0,0,0,0,0,0,0,0,0,0,0,0,0,0,0.2481,0.2481,0,0.2506,0.2506,0.2506,0.2494,0.2493,0.2493,0.2492,0.252,0.2521,0.2522,0,0,0,0,0,0,0,0,0,0,0,0,0,0.2426,0.2427,0.2481,0.2481,0.2482,0.2506,0.2506,0.2506,0.2494,0.2493,0.2492,0.2492,0.2519,0.2521,0.2522,0,0,0,0,0,0,0,0,0,0,0,0,0,0.245,0.2428,0.2481,0.2478,0.2478,0.2506,0.2506,0.2507,0.2494,0.2493,0.2492,0.2491,0.2519,0.2521,0.2523,0.2555,0,0,0.2529,0.253,0,0,0,0,0,0,0,0,0.2449,0.2452,0.2478,0.2479,0.2479,0.2496,0.2497,0.2523,0.2494,0.2488,0.2492,0.2491,0.2513,0.2515,0.2522,0.2556,0.2557,0.2529,0.253,0.2531,0.2532,0,0,0,0,0,0,0,0.2447,0.2451,0.2491,0.2479,0.2479,0.2477,0.2479,0.2502,0.2506,0.2489,0.2488,0.2491,0.2513,0.252,0.2522,0.2558,0.2529,0.2531,0.2532,0.2533,0.2621,0.2622,0,0,0,0,0,0,0.2445,0.245,0.249,0.2492,0.2461,0.2479,0.2481,0.2491,0.2505,0.2507,0.2492,0.249,0.2517,0.252,0.2523,0.2563,0.2531,0.2533,0.2534,0.262,0.2621,0.2623,0,0,0,0,0,0,0.2444,0.2449,0.2489,0.2471,0.2476,0.2481,0.2492,0.2492,0.25,0.2508,0.2509,0.2498,0.2516,0.2521,0.2547,0.2564,0.2534,0.2536,0.2619,0.262,0.2622,0.2642,0,0,0,0,0,0,0.2443,0.2449,0.246,0.2471,0.2477,0.2512,0.2493,0.2493,0.2503,0.2501,0.2514,0.2515,0.2516,0.2544,0.2549,0.2566,0.2537,0.2617,0.2619,0.2621,0.264,0.2645,0.2648,0,0,0,0,0,0.2441,0.2465,0.2461,0.2466,0.2491,0.2513,0.2516,0.2515,0.2504,0.2517,0.2522,0.2515,0.2561,0.2547,0.2553,0.257,0.2616,0.2619,0.2621,0.2639,0.2644,0.2648,0,0,0,0,0,0,0.2457,0.2467,0.2462,0.249,0.2501,0.2511,0.2526,0.2521,0.2535,0.2533,0.2532,0.2536,0.2564,0.2569,0.2554,0.2603,0.2587,0.2591,0.2598,0.2603,0.2607,0.2606,0.2539,0,0,0,0,0,0.2464,0.248,0.2488,0.2512,0.2517,0.2521,0.253,0.2529,0.254,0.2545,0.2552,0.2563,0.2581,0.2592,0.2608,0.2641,0.2644,0.2656,0.266,0.2663,0.2667,0.2686,0.2692,0.2631,0.2631,0.2631,0,0,0.2478,0.2485,0.2496,0.2515,0.2523,0.2541,0.2525,0.2544,0.2557,0.2548,0.2574,0.2579,0.2592,0.2623,0.2636,0.2628,0.2684,0.2666,0.2669,0.2671,0.2689,0.2695,0.27,0.2633,0.2632,0.2632,0,0,0.2514,0.252,0.2542,0.255,0.2562,0.2564,0.257,0.258,0.2584,0.2609,0.2603,0.2619,0.2649,0.2659,0.2668,0.2708,0.2703,0.2714,0.2735,0.2754,0.2759,0.2763,0.2779,0.2784,0.2717,0.2717,0.2717,0,0.253,0.2556,0.2554,0.2574,0.2583,0.2575,0.2598,0.2606,0.2623,0.2631,0.2621,0.2659,0.2667,0.27,0.271,0.2717,0.2724,0.2713,0.2758,0.2762,0.2766,0.2781,0.2787,0.2718,0.2718,0.2718,0.2718,0,0.2577,0.2595,0.2611,0.2627,0.2639,0.266,0.2662,0.2674,0.2672,0.2675,0.2703,0.2712,0.2731,0.2738,0.2736,0.2772,0.2767,0.2757,0.2742,0.2773,0.2788,0.2793,0.272,0.272,0.2719,0.2719,0,0,0.2623,0.2639,0.2645,0.2653,0.2666,0.268,0.2702,0.2719,0.273,0.2742,0.2762,0.2787,0.2779,0.2789,0.2788,0.2805,0.2838,0.2794,0.2794,0.2803,0.288,0.2887,0.2894,0.2834,0.2835,0.2836,0.2879,0,0.2661,0.2698,0.2697,0.2732,0.2749,0.2742,0.2761,0.2772,0.2776,0.2792,0.2797,0.2815,0.2802,0.2809,0.2825,0.2831,0.2854,0.2827,0.2854,0.2855,0.2852,0.2901,0.2909,0.2949,0.2884,0.2885,0.2886,0,0.271,0.2724,0.276,0.2772,0.2779,0.2796,0.2813,0.2828,0.2841,0.2843,0.2854,0.2851,0.2874,0.2857,0.289,0.2872,0.2883,0.2888,0.2889,0.2893,0.2873,0.2908,0.2962,0.2968,0.2895,0.2894,0.2893,0,0.2742,0.277,0.2796,0.2802,0.2816,0.2829,0.2835,0.2846,0.2858,0.2873,0.288,0.2898,0.2908,0.2922,0.2924,0.2911,0.2958,0.294,0.2962,0.2962,0.2973,0.2973,0.3031,0.2977,0.2977,0.2977,0.2977,0,0.2785,0.2808,0.281,0.2826,0.2853,0.2852,0.2878,0.2883,0.2894,0.2912,0.2906,0.2923,0.2924,0.2943,0.2944,0.2972,0.2977,0.298,0.2981,0.2981,0.2981,0.2989,0.2987,0.2979,0.2978,0.2978,0.2978,0,0.2826,0.2828,0.2856,0.2867,0.287,0.2889,0.2899,0.2915,0.2919,0.2942,0.2947,0.2953,0.2974,0.2977,0.3002,0.3003,0.3037,0.3034,0.3033,0.3033,0.3055,0.3053,0.3122,0.3132,0.307,0.3071,0.3071,0,0.2854,0.2871,0.2884,0.2896,0.2903,0.2921,0.2932,0.2932,0.2945,0.2961,0.2975,0.2996,0.3012,0.3046,0.3053,0.3073,0.3071,0.3094,0.3074,0.3075,0.3073,0.3073,0.3075,0.3098,0.3099,0.3099,0.31,0,0.2903,0.2904,0.292,0.2937,0.2951,0.2965,0.2977,0.2987,0.2989,0.3003,0.3025,0.3037,0.3063,0.3084,0.3103,0.3111,0.3106,0.3106,0.3112,0.3114,0.3113,0.3115,0.3045,0.3104,0.3104,0.3103,0.3103,0.3103,0.2939,0.2955,0.2967,0.2986,0.2996,0.3008,0.3024,0.303,0.3047,0.3068,0.3067,0.3091,0.3104,0.3129,0.3138,0.3158,0.3151,0.3159,0.3162,0.3164,0.3167,0.3109,0.3161,0.3161,0.3161,0.3161,0.3161,0,0.299,0.2997,0.3015,0.3033,0.3048,0.3042,0.3056,0.3069,0.309,0.3103,0.3119,0.3144,0.3165,0.3174,0.3194,0.3208,0.3207,0.3214,0.3213,0.3216,0.3172,0.3165,0.3215,0.3214,0.3214,0.3214,0.3214,0.3214,0.3018,0.3045,0.3048,0.308,0.3087,0.311,0.3119,0.3131,0.3141,0.317,0.3187,0.3192,0.3204,0.3225,0.3244,0.3246,0.3255,0.3263,0.3265,0.3224,0.3218,0.3213,0.3207,0.3265,0.3265,0.3307,0.3307,0.3308]},{"header":{"parameterUnit":"m.s-1","parameterCategory":1,"la1":30.2991,"la2":30.254,"lo1":-89.0895,"lo2":-89.0444,"dy":0.0017,"dx":0.0017,"nx":28,"ny":28,"refTime":"2025-03-31T09:00:00:Z","depth":0,"parameterNumber":3,"parameterNumberName":"V-component_of_WINDS"},"data":[0,0,0,0,0,0,0,0,0,0,0,0,0,0,0,0,0,0,0,0,0,0,0,0,0,0,0,0,0,0,0,0,0,0,0,0,0,0,0,0,0,0,0,0,0,0,0,0,0,0,0,0,0,0,0,0,0,0,4.8448,4.8449,0,4.8499,4.85,4.85,4.8472,4.8471,4.847,4.8468,4.852,4.8522,4.8525,0,0,0,0,0,0,0,0,0,0,0,0,0,4.8326,4.8328,4.8448,4.8449,4.8449,4.8499,4.85,4.8501,4.8473,4.8471,4.8469,4.8468,4.8519,4.8522,4.8525,0,0,0,0,0,0,0,0,0,0,0,0,0,4.8378,4.8329,4.8448,4.8441,4.8441,4.8499,4.85,4.8501,4.8473,4.8471,4.8469,4.8467,4.8518,4.8522,4.8526,4.8592,0,0,4.8538,4.8539,0,0,0,0,0,0,0,0,4.8375,4.8383,4.8442,4.8442,4.8442,4.8477,4.8476,4.8531,4.8474,4.8461,4.8468,4.8466,4.8507,4.8512,4.8526,4.8595,4.8597,4.8538,4.8541,4.8542,4.8543,0,0,0,0,0,0,0,4.8372,4.838,4.8468,4.8443,4.8443,4.8436,4.8441,4.8486,4.8495,4.8462,4.846,4.8467,4.8507,4.8522,4.8527,4.8597,4.8538,4.8542,4.8544,4.8546,4.8726,4.8728,0,0,0,0,0,0,4.8368,4.8377,4.8467,4.847,4.8403,4.844,4.8446,4.8468,4.8495,4.8497,4.8468,4.8465,4.8516,4.8522,4.8529,4.861,4.8542,4.8546,4.8548,4.8723,4.8726,4.8729,0,0,0,0,0,0,4.8366,4.8377,4.8464,4.8423,4.8434,4.8444,4.847,4.847,4.8486,4.8499,4.8501,4.8482,4.8515,4.8523,4.8577,4.8612,4.8548,4.8551,4.872,4.8724,4.8727,4.8773,0,0,0,0,0,0,4.8362,4.8376,4.8401,4.8424,4.8436,4.8512,4.8472,4.8473,4.8493,4.8489,4.8513,4.8515,4.8514,4.8571,4.8581,4.8616,4.8555,4.8717,4.8722,4.8726,4.8768,4.8778,4.8785,0,0,0,0,0,4.8358,4.8411,4.8403,4.8414,4.8468,4.8514,4.8521,4.8519,4.8496,4.8522,4.8531,4.8514,4.8606,4.8577,4.8588,4.8624,4.8715,4.8721,4.8726,4.8765,4.8776,4.8785,0,0,0,0,0,0,4.8391,4.8414,4.8405,4.8467,4.8489,4.8509,4.8542,4.8531,4.856,4.8555,4.8551,4.8557,4.8614,4.8624,4.8592,4.8691,4.8657,4.8665,4.8683,4.8693,4.8702,4.8699,4.8558,0,0,0,0,0,4.8406,4.8442,4.8459,4.8512,4.8524,4.8531,4.8551,4.8548,4.8571,4.858,4.8593,4.8615,4.8649,4.8672,4.8703,4.8769,4.8775,4.88,4.8809,4.8815,4.8823,4.886,4.8872,4.8746,4.8746,4.8746,0,0,4.8436,4.8453,4.8476,4.852,4.8536,4.8574,4.8539,4.858,4.8608,4.8586,4.8638,4.8649,4.8673,4.8735,4.8762,4.8745,4.8859,4.8822,4.8828,4.8831,4.8867,4.8879,4.889,4.875,4.8749,4.8749,0,0,4.8511,4.8527,4.8574,4.8592,4.8618,4.8623,4.8634,4.8657,4.8664,4.8716,4.8701,4.8734,4.8792,4.8811,4.8829,4.8913,4.89,4.8923,4.8968,4.9005,4.9015,4.9024,4.9056,4.9067,4.893,4.893,4.893,0,4.8546,4.8602,4.8599,4.8642,4.8663,4.8645,4.8693,4.871,4.8746,4.876,4.8741,4.8815,4.883,4.8896,4.8917,4.8931,4.8945,4.8921,4.9014,4.9023,4.9031,4.9061,4.9073,4.8933,4.8933,4.8932,4.8932,0,4.8644,4.8683,4.8718,4.8754,4.8778,4.8823,4.8828,4.8852,4.8847,4.8854,4.8909,4.8927,4.8963,4.8978,4.8973,4.9045,4.9034,4.9014,4.898,4.9046,4.9074,4.9086,4.8937,4.8936,4.8935,4.8934,0,0,4.8741,4.8776,4.8789,4.8806,4.8835,4.8865,4.891,4.8946,4.8968,4.8993,4.9031,4.9082,4.9065,4.9084,4.9081,4.9114,4.9182,4.909,4.9091,4.9108,4.9264,4.9279,4.9293,4.9173,4.9175,4.9177,4.9262,0,4.8819,4.8898,4.8898,4.8971,4.9009,4.8993,4.9032,4.9054,4.9062,4.9095,4.9103,4.914,4.9113,4.9126,4.9157,4.9167,4.9213,4.916,4.9209,4.9211,4.9205,4.9307,4.9323,4.9403,4.9273,4.9275,4.9276,0,4.8921,4.8951,4.9029,4.9054,4.9069,4.9105,4.9139,4.917,4.9195,4.9199,4.9222,4.9214,4.926,4.9224,4.9288,4.9253,4.9272,4.9281,4.9284,4.9289,4.9249,4.9317,4.9428,4.9441,4.9293,4.9292,4.9291,0,4.8987,4.9046,4.9101,4.9116,4.9146,4.9171,4.9185,4.9208,4.923,4.926,4.9275,4.9309,4.9328,4.9355,4.9358,4.9331,4.9423,4.9386,4.9428,4.9429,4.945,4.9449,4.9567,4.946,4.946,4.9459,4.9459,0,4.9075,4.9124,4.9131,4.9165,4.9219,4.9218,4.9272,4.9283,4.9304,4.934,4.9328,4.9362,4.9362,4.9397,4.9399,4.9453,4.9461,4.9466,4.9466,4.9468,4.9468,4.9482,4.9477,4.9463,4.9462,4.9461,4.9461,0,4.9158,4.9165,4.9224,4.9248,4.9255,4.9294,4.9315,4.9347,4.9354,4.94,4.9411,4.9422,4.9463,4.9467,4.9514,4.9515,4.9581,4.9575,4.9574,4.9573,4.9616,4.9612,4.9749,4.9768,4.9646,4.9647,4.9648,0,4.9215,4.9252,4.9281,4.9305,4.932,4.9358,4.9381,4.9382,4.9407,4.9439,4.9468,4.9508,4.954,4.9605,4.9618,4.9654,4.9649,4.9695,4.9655,4.9656,4.9652,4.9651,4.9655,4.9703,4.9704,4.9705,4.9706,0,4.9316,4.9318,4.9352,4.9389,4.9417,4.9446,4.9472,4.9492,4.9496,4.9525,4.9567,4.9592,4.9641,4.9681,4.9717,4.9731,4.972,4.9719,4.9731,4.9734,4.9732,4.9736,4.9597,4.9716,4.9715,4.9714,4.9713,4.9713,4.9388,4.9422,4.9448,4.9487,4.9508,4.9533,4.9566,4.9577,4.9613,4.9653,4.9651,4.9698,4.9723,4.9771,4.9788,4.9824,4.9809,4.9826,4.9831,4.9835,4.9841,4.9725,4.9831,4.983,4.983,4.983,4.983,0,4.949,4.9507,4.9543,4.9582,4.9613,4.96,4.9629,4.9656,4.9698,4.9723,4.9755,4.9804,4.9843,4.9859,4.9898,4.9924,4.992,4.9934,4.9933,4.9937,4.9851,4.9838,4.9937,4.9937,4.9937,4.9937,4.9937,4.9937,4.9547,4.9604,4.9609,4.9675,4.9691,4.9738,4.9756,4.978,4.98,4.9856,4.9888,4.9899,4.992,4.9961,4.9996,5.0,5.0016,5.0032,5.0034,4.9954,4.9943,4.9933,4.992,5.0035,5.0035,5.0117,5.0118,5.0119]}]]